Regional Weather Roundup
Issued by NWS

Home | Current Version | Previous Version | Text Only | Print | Product List | Glossary Off
Versions: 1 2 3 4 5 6 7 8 9 10 11 12 13 14 15 16 17 18 19 20 21 22 23 24 25 26 27 28 29 30 31 32 33 34 35 36 37 38 39 40 41 42 43 44 45 46 47 48

000
ASUS45 KBOU 141307
RWRCO

WEATHER ROUNDUP FOR COLORADO
NATIONAL WEATHER SERVICE DENVER/BOULDER CO
700 AM MDT SUN SEP 14 2014

NOTE: "FAIR" INDICATES FEW OR NO CLOUDS BELOW 12000 FEET WITH NO
SIGNIFICANT WEATHER AND/OR OBSTRUCTIONS TO VISIBILITY.

COZ001>005-013-030-031-141400-
...NORTHWEST COLORADO...

CITY           SKY/WX    TMP DP  RH WIND       PRES   REMARKS
CRAIG          CLEAR     36  32  85 CALM      30.21R
HAYDEN         PTCLDY    45  30  57 E14       30.23R
MEEKER         CLEAR     41  35  79 NE3       30.23S
MOUNT WERNER   NOT AVBL
STEAMBOAT SPGS CLEAR     39  33  81 CALM      30.26R
WALDEN         CLEAR     37  28  70 E7        30.30R
$$

COZ006>008-011-141400-
...WEST CENTRAL VALLEYS...

CITY           SKY/WX    TMP DP  RH WIND       PRES   REMARKS
GRAND JUNCTION CLEAR     51  37  58 SE9       30.14R
MONTROSE       MOCLDY    54  38  54 S8        30.23R
EAGLE          CLEAR     39  34  81 CALM      30.32R
RIFLE          CLEAR     44  36  73 CALM      30.22R
DELTA          MOCLDY    52  38  59 E6        30.20R
NUCLA          MOCLDY    55  37  50 E3        30.26R
$$

COZ017>023-064>068-141400-
...SOUTHWEST COLORADO...

CITY           SKY/WX    TMP DP  RH WIND       PRES   REMARKS
DURANGO        CLEAR     43  35  73 CALM      30.31R
CORTEZ         CLEAR     43  38  82 SE6       30.24R
PAGOSA SPRINGS NOT AVBL
TELLURIDE      MOCLDY    46  34  61 E6        30.43R
WOLF CREEK PAS CLEAR     39  32  75 SW15      30.59R
$$

COZ009-010-012-014-032>034-037-058>063-141400-
...CENTRAL COLORADO...

CITY           SKY/WX    TMP DP  RH WIND       PRES   REMARKS
ASPEN          CLEAR     42  31  64 S7        30.33R
BUENA VISTA    CLEAR     38  28  66 NW3       30.38R
COPPER MTN     CLEAR     45  21  39 W15G24    30.56R
BERTHOUD PASS  FAIR      36  34  93 W25G33    30.56S
COTTONWOOD PAS CLEAR     50  25  37 W3        30.45S
GUNNISON       MOCLDY    34  27  75 CALM      30.42R
KREMMLING      CLEAR     32  30  93 CALM      30.35R
LEADVILLE      CLEAR     31  23  72 CALM      30.45R
MONARCH PASS   CLEAR     39  23  52 SW17      30.67R
SALIDA         CLEAR     44  29  56 CALM      30.43R
SUNLIGHT       CLEAR     45  30  57 CALM      30.50R
WILKERSON PASS NOT AVBL
$$

COZ069>075-141400-
...SAN LUIS VALLEY/SANGRE DE CRISTO MOUNTAINS...

CITY           SKY/WX    TMP DP  RH WIND       PRES   REMARKS
ALAMOSA        PTCLDY    41  35  79 CALM      30.36R
LA VETA PASS   NOT AVBL
SAGUACHE       NOT AVBL
$$

COZ035-036-038>040-141400-
...NORTHERN COLORADO FRONT RANGE...

CITY           SKY/WX    TMP DP  RH WIND       PRES   REMARKS
DENVER INTL AP PTCLDY    53  35  50 W13       30.13R
DMNS CITY PARK   N/A     54  36  51 S8        30.13R
AURORA         PTCLDY    54  33  45 SW8       30.16R
FRONT RANGE AP PTCLDY    57  34  41 SW10      30.14R
ERIE MUNI ARPT PTCLDY    45  42  91 CALM      30.13R
BOULDER MUN AP PTCLDY    46  43  87 CALM      30.13R
CENTENNIAL     MOCLDY    53  32  44 CALM      30.16R
BROOMFIELD     MOCLDY    55  37  50 CALM      30.15R
FORT COLLINS   MOCLDY    45  39  81 CALM      30.13S
LONGMONT       MOCLDY    45  42  89 SW3       30.15R
$$

COZ041-046-047-076>085-087-088-141400-
...PIKES PEAK/PALMER DIVIDE AND SOUTHERN FOOTHILLS...

CITY           SKY/WX    TMP DP  RH WIND       PRES   REMARKS
COLO. SPRINGS  PTCLDY    51  32  48 N6        30.21R
A. F. ACADEMY  CLEAR     43  32  64 N8        30.22S
ELLICOTT       NOT AVBL
FALCON         CLEAR     50  31  47 NW10      30.24S
FORT CARSON    CLEAR     47  36  65 NW8       30.19R
LIMON          CLEAR     41  41 100 N6        30.15S
MONUMENT HILL  CLEAR     48  30  49 SW8       30.24R
TRINIDAD       CLEAR     50  45  83 W10       30.21R
$$

COZ042>045-048>051-090-091-141400-
...NORTHEAST COLORADO...

CITY           SKY/WX    TMP DP  RH WIND       PRES   REMARKS
GREELEY ARPT   CLOUDY    41  34  75 CALM      30.12S
AKRON          CLEAR     50  46  86 SW7       30.10S
BURLINGTON     FOG       50  49  96 SW7       30.11S VSB 1/4
WRAY           FOG      N/A N/A N/A CALM      30.12R VSB<1/4
STERLING       FOG       45  45 100 CALM      30.09R VSB<1/4
HOLYOKE        FOG       41  39  93 SE5       30.11R VSB<1/4
FORT MORGAN    CLEAR     42  40  92 W3        30.11R
$$

COZ086-089-092>099-141400-
...SOUTHEAST COLORADO...

CITY           SKY/WX    TMP DP  RH WIND       PRES   REMARKS
PUEBLO         CLEAR     44  37  76 W7        30.15R
LA JUNTA       CLOUDY    53  51  93 W3        30.13R FOG
LAMAR          FOG       50  50 100 W6        30.09R VSB<1/4
SPRINGFIELD      N/A     52  48  86 SW6       30.13R
$$



USA.gov is the U.S. government's official web portal to all federal, state and local government web resources and services.